Location: Bothwell
(42.3833°S, 147.0000°E)
Time: 08:27:59
(UTC+10:00)

UNISAT 6 - Pass Details

Date: 06 August 2024
Orbit: 589 x 662 km, 97.7° (Epoch: 14 September)

Event Time Altitude Azimuth Distance (km) Brightness Sun altitude
Rises 05:36:49 0° 178° (S) 3,034 ? -18.6°
Reaches altitude 10° 05:39:15 10° 187° (S) 2,119 ? -18.2°
Enters shadow 05:43:11 31° 245° (WSW) 1,176 ? -17.5°
